TimeEDT,TemperatureF,Dew PointF,Humidity,Sea Level PressureIn,VisibilityMPH,Wind Direction,Wind SpeedMPH,Gust SpeedMPH,PrecipitationIn,Events,Conditions,WindDirDegrees,DateUTC
12:53 AM,75.9,66.9,74,30.23,10.0,ESE,5.8,-,N/A,,Overcast,110,2013-07-14 04:53:00
1:53 AM,75.0,66.9,76,30.24,10.0,ESE,8.1,-,N/A,,Overcast,120,2013-07-14 05:53:00
2:53 AM,73.9,66.9,79,30.23,10.0,ESE,4.6,-,N/A,,Scattered Clouds,110,2013-07-14 06:53:00
3:53 AM,73.9,66.9,79,30.24,10.0,ESE,4.6,-,N/A,,Scattered Clouds,120,2013-07-14 07:53:00
4:53 AM,73.9,64.9,73,30.23,10.0,ESE,8.1,-,N/A,,Clear,110,2013-07-14 08:53:00
5:53 AM,73.0,64.9,76,30.26,10.0,East,3.5,-,N/A,,Clear,80,2013-07-14 09:53:00
6:53 AM,72.0,64.9,78,30.28,10.0,ESE,5.8,-,N/A,,Clear,110,2013-07-14 10:53:00
7:53 AM,73.9,66.0,76,30.30,10.0,ESE,6.9,-,N/A,,Clear,120,2013-07-14 11:53:00
8:53 AM,77.0,64.9,66,30.31,10.0,SE,6.9,-,N/A,,Clear,130,2013-07-14 12:53:00
9:53 AM,80.1,64.9,60,30.31,10.0,SSE,6.9,-,N/A,,Clear,160,2013-07-14 13:53:00
10:53 AM,81.0,64.0,56,30.30,10.0,SSE,10.4,-,N/A,,Clear,150,2013-07-14 14:53:00
11:53 AM,84.0,64.9,53,30.30,10.0,SSE,5.8,-,N/A,,Clear,150,2013-07-14 15:53:00
12:53 PM,84.9,64.9,51,30.29,10.0,SSW,5.8,-,N/A,,Clear,200,2013-07-14 16:53:00
1:53 PM,87.1,64.0,46,30.27,10.0,South,6.9,-,N/A,,Clear,180,2013-07-14 17:53:00
2:53 PM,88.0,63.0,43,30.27,10.0,Variable,4.6,-,N/A,,Clear,0,2013-07-14 18:53:00
3:53 PM,89.1,63.0,42,30.25,10.0,Variable,6.9,-,N/A,,Partly Cloudy,0,2013-07-14 19:53:00
4:53 PM,89.1,64.0,43,30.25,10.0,South,6.9,-,N/A,,Partly Cloudy,190,2013-07-14 20:53:00
5:53 PM,87.1,63.0,44,30.25,10.0,South,3.5,-,N/A,,Scattered Clouds,190,2013-07-14 21:53:00
6:53 PM,87.1,66.0,49,30.25,10.0,Calm,Calm,-,N/A,,Scattered Clouds,0,2013-07-14 22:53:00
7:53 PM,84.9,68.0,57,30.25,10.0,Calm,Calm,-,N/A,,Clear,0,2013-07-14 23:53:00
8:53 PM,80.1,71.1,74,30.27,10.0,ENE,3.5,-,N/A,,Scattered Clouds,70,2013-07-15 00:53:00
9:53 PM,80.1,66.9,64,30.28,10.0,Calm,Calm,-,N/A,,Scattered Clouds,0,2013-07-15 01:53:00
10:53 PM,78.1,66.0,66,30.29,10.0,South,5.8,-,N/A,,Mostly Cloudy,170,2013-07-15 02:53:00
11:53 PM,77.0,66.9,71,30.29,10.0,Calm,Calm,-,N/A,,Clear,0,2013-07-15 03:53:00